Location: Waco, TX
(31.5480°N, 97.1670°W)
Time: 22:55:33
(UTC-05:00)

ISS - Pass Details

Date: 22 April 2018
Orbit: 403 x 406 km, 51.6° (Epoch: 23 April)

Event Time Altitude Azimuth Distance (km) Brightness Sun altitude
Rises 15:31:34 0° 335° (NNW) 2,323 0.0 55.6°
Reaches altitude 10° 15:35:01 10° 14° (NNE) 1,461 -1.1 54.9°
Maximum altitude 15:36:00 11° 31° (NNE) 1,402 -1.3 54.7°
Drops below altitude 10° 15:36:58 10° 49° (NE) 1,460 -1.2 54.6°
Sets 15:40:24 0° 87° (E) 2,318 -0.3 53.9°
